Location: Unspecified
(0.0000°N, 0.0000°E)
Time: 17:18:30
(UTC+00:00)

deb r/b Ablestar - Pass Details

Date: 14 March 2026
Orbit: 726 x 907 km, 66.9° (Epoch: 18 April)

Event Time Altitude Azimuth Distance (km) Brightness Sun altitude
Rises 18:31:41 0° 162° (SSE) 3,396 ? -5.6°
Reaches altitude 10° 18:35:49 10° 133° (SE) 2,501 ? -6.7°
Maximum altitude 18:38:04 12° 109° (ESE) 2,355 ? -7.2°
Drops below altitude 10° 18:40:22 10° 86° (E) 2,537 ? -7.8°
Enters shadow 18:40:51 - 82° (E) 2,613 ? -7.9°
